Starlink 30128

operational
NORAD ID: 56832 Int'l Des: 2023-079 Owner: SPXS Country: US Constellation: starlink
LEOCIRCULAR

Starlink 30128について

説明を読み込み中...

リアルタイム位置

3D地球を読み込み中...

次回通過

高度履歴

Altitude vs Time

uPlot chart will show altitude changes over time

軌道要素

1 56832U 23079K 25306.01329410 -.00001293 00000-0 -80706-4 0 9993
2 56832 43.0036 55.1278 0001280 272.3661 87.7034 15.02526504127579
Epoch: Nov 2, 2025 • Age: 45 hours

現在のステータス

高度 562.2 km
速度 7.59 km/s
衛星直下点 39.61°N, 104.04°E
打ち上げ日 Jun 4, 2023
運用期間 2.4 years
タイプ internet

技術仕様

分類 Payload
質量 730.00 kg
乾燥質量 700.00 kg
総質量 730.00 kg
長さ 0.30 m
直径 4.10 m
スパン 29.00 m
形状 Box + pan
製造者 SPXS
バスタイプ Starlink V2M
フェーズステータス In Orbit
所有者/国 SPXS/US

大規模コンステレーション

Loading constellations...